EST,Max TemperatureF,Mean TemperatureF,Min TemperatureF,Max Dew PointF,MeanDew PointF,Min DewpointF,Max Humidity, Mean Humidity, Min Humidity, Max Sea Level PressureIn, Mean Sea Level PressureIn, Min Sea Level PressureIn, Max VisibilityMiles, Mean VisibilityMiles, Min VisibilityMiles, Max Wind SpeedMPH, Mean Wind SpeedMPH, Max Gust SpeedMPH,PrecipitationIn, CloudCover, Events, WindDirDegrees
2011-11-1,51,46,42,41,35,30,76,66,54,30.07,30.03,29.94,10,10,9,16,10,23,0.00,4,,207
2011-11-2,48,45,42,41,39,36,81,78,71,30.11,30.03,29.96,10,9,6,12,4,17,0.02,8,,338
2011-11-3,48,37,26,34,28,21,86,70,46,30.25,30.19,30.13,10,10,8,8,5,,0.00,0,,325
2011-11-4,48,34,21,36,27,16,86,70,50,30.35,30.30,30.25,10,10,5,10,3,,0.00,0,,184
2011-11-5,50,47,44,37,35,30,71,65,57,30.26,30.17,30.03,10,10,10,18,13,26,0.00,3,,184
2011-11-6,53,50,48,45,41,36,76,70,62,30.01,29.89,29.78,10,10,8,16,13,26,0.00,3,,181
2011-11-7,57,47,35,32,24,18,56,43,24,30.20,30.06,29.92,10,10,10,22,11,33,0.00,0,,239
2011-11-8,44,37,30,34,29,19,75,66,52,30.22,30.17,30.11,10,10,10,10,5,,0.00,6,,24
2011-11-9,39,36,33,34,30,27,81,77,70,30.10,29.78,29.53,10,8,1,18,10,29,0.34,7,,356
2011-11-10,39,34,28,28,26,21,80,72,56,29.87,29.78,29.65,10,10,10,16,11,20,0.00,5,,281
2011-11-11,39,34,28,27,22,19,80,63,52,29.88,29.77,29.59,10,10,10,15,10,21,0.00,4,,244
2011-11-12,50,37,26,41,31,21,80,69,57,29.69,29.60,29.45,10,10,9,14,8,21,0.00,0,,203
2011-11-13,51,46,42,45,42,37,87,78,71,29.44,29.29,29.20,10,9,0,16,11,24,0.00,4,,204
2011-11-14,48,39,30,37,32,25,80,65,50,29.55,29.48,29.38,10,10,9,14,8,20,0.00,2,,225
2011-11-15,46,37,28,36,28,21,87,70,56,29.71,29.63,29.56,10,10,1,17,7,33,0.00,2,,241
2011-11-16,37,30,21,23,16,10,68,52,38,29.98,29.85,29.68,10,10,10,20,10,25,0.00,3,,274
2011-11-17,33,27,21,16,11,9,69,53,41,30.09,29.99,29.95,10,10,10,20,8,26,0.00,4,,271
2011-11-18,42,32,23,28,18,10,69,51,39,30.10,29.87,29.74,10,10,10,17,7,23,0.00,4,,214
2011-11-19,42,37,32,28,25,21,81,64,49,29.81,29.76,29.73,10,8,2,9,5,,0.06,5,,293
2011-11-20,33,30,26,28,19,16,81,67,59,30.38,30.23,29.82,10,10,8,20,9,36,0.00,8,,336
2011-11-21,33,28,24,23,19,16,80,69,60,30.39,30.35,30.29,10,10,8,13,3,22,0.00,7,,275
2011-11-22,39,32,26,30,25,21,86,73,65,30.33,30.18,30.03,10,9,4,13,5,,0.00,7,,57
2011-11-23,35,30,24,28,25,18,86,78,70,30.11,30.06,30.03,10,7,3,12,5,,0.00,3,,254
2011-11-24,44,36,28,37,32,25,86,78,70,30.04,29.96,29.85,7,4,0,18,8,25,0.00,6,,208
2011-11-25,50,42,35,39,38,30,87,78,66,29.85,29.79,29.75,10,6,0,10,6,,0.00,2,,218
2011-11-26,48,45,42,43,41,36,87,83,76,29.84,29.75,29.69,10,4,1,14,5,20,0.12,8,,179
2011-11-27,42,36,30,34,24,18,76,67,60,30.10,29.94,29.77,10,10,7,16,10,24,0.00,8,,321
2011-11-28,33,30,26,21,19,18,74,65,60,30.16,30.11,30.04,10,10,10,12,8,17,0.00,5,,251
2011-11-29,35,30,26,23,19,16,75,61,48,30.17,30.11,30.03,10,10,10,20,7,26,0.00,3,,344
2011-11-30,44,30,17,27,15,10,79,53,25,30.05,29.96,29.91,10,10,3,10,7,,0.00,3,,275